Weather History for North Platte, NE

Change the Weather History Date:

Saturday, April 27, 2013

  Actual Average Record
Temperature  
Mean Temperature 56 °F 52 °F  
Max Temperature 80 °F 66 °F 86 °F (1952)
Min Temperature 31 °F 37 °F 24 °F (2008)
Degree Days  
Heating Degree Days 9 14  
Month to date heating degree days 641 486  
Since 1 July heating degree days 6474 6351  
Cooling Degree Days 0 0  
Month to date cooling degree days 0 0  
Year to date cooling degree days 0 0  
Growing Degree Days 5 (Base 50)    
Moisture  
Dew Point 32 °F    
Average Humidity 51    
Maximum Humidity 89    
Minimum Humidity 13    
Precipitation  
Precipitation 0.00 in 0.09 in 1.61 in (1912)
Month to date precipitation 1.27 2.00  
Year to date precipitation 3.04 3.89  
Snow  
Snow 0.00 in 0.00 in 2.50 in (1918)
Month to date snowfall 6.7 3.1  
Since 1 July snowfall 29.3 28.4  
Snow Depth 0.00 in    
Sea Level Pressure  
Sea Level Pressure 30.02 in    
Wind  
Wind Speed 6 mph (SSW)    
Max Wind Speed 18 mph    
Max Gust Speed 23 mph    
Visibility 10 miles    
Events      
T = Trace of Precipitation, MM = Missing Value Source: NWS Daily Summary

Daily Weather History Graph

Daily Weather History Graph

Search for Another Location

Airport:

Trip Planner

Search our weather history database for the weather conditions in past years. The results will help you decide how hot, cold, wet, or windy it might be!

Date:

Astronomy

Apr. 27, 2013 Rise Set
Actual Time 6:45 AM CDT 8:35 PM CDT
Civil Twilight 6:15 AM CDT 9:05 PM CDT
Nautical Twilight 5:39 AM CDT 9:41 PM CDT
Astronomical Twilight 5:01 AM CDT 10:20 PM CDT
Moon 11:07 PM CDT (4/27) 8:04 AM CDT (4/27)
Length of Visible Light 14h 49m
Length of Day
13h 50m
Waning Gibbous, 95% of the Moon is Illuminated
Apr 27
Waning Gibbous
May 2
Last Quarter
May 9
New
May 17
First Quarter
May 24
Full

Hourly Weather History & Observations

Time (CDT) Temp. Dew Point Humidity Pressure Visibility Wind Dir Wind Speed Gust Speed Precip Events Conditions
12:53 AM 39.0 °F 30.9 °F 73% 30.15 in 10.0 mi Calm Calm - N/A   Clear
1:53 AM 37.9 °F 28.9 °F 70% 30.15 in 10.0 mi Calm Calm - N/A   Clear
2:53 AM 39.0 °F 28.9 °F 67% 30.13 in 10.0 mi Calm Calm - N/A   Clear
3:53 AM 35.1 °F 30.9 °F 85% 30.13 in 10.0 mi Calm Calm - N/A   Clear
4:53 AM 35.1 °F 30.0 °F 82% 30.13 in 10.0 mi Calm Calm - N/A   Clear
5:53 AM 33.1 °F 30.0 °F 89% 30.12 in 10.0 mi Calm Calm - N/A   Clear
6:53 AM 32.0 °F 28.9 °F 88% 30.12 in 10.0 mi Calm Calm - N/A   Clear
7:53 AM 39.9 °F 34.0 °F 79% 30.12 in 10.0 mi Calm Calm - N/A   Clear
8:53 AM 46.0 °F 35.1 °F 66% 30.13 in 10.0 mi Calm Calm - N/A   Clear
9:53 AM 55.9 °F 39.0 °F 53% 30.10 in 10.0 mi Calm Calm - N/A   Clear
10:53 AM 68.0 °F 39.0 °F 35% 30.07 in 10.0 mi SSW 8.1 mph - N/A   Clear
11:53 AM 72.0 °F 33.1 °F 24% 30.05 in 10.0 mi SSW 10.4 mph 17.3 mph N/A   Clear
12:53 PM 73.9 °F 33.1 °F 22% 30.02 in 10.0 mi WSW 11.5 mph 17.3 mph N/A   Clear
1:53 PM 75.9 °F 33.1 °F 21% 29.99 in 10.0 mi SW 9.2 mph - N/A   Clear
2:53 PM 78.1 °F 30.0 °F 17% 29.95 in 10.0 mi Variable 5.8 mph - N/A   Clear
3:53 PM 79.0 °F 27.0 °F 15% 29.93 in 10.0 mi WNW 8.1 mph 17.3 mph N/A   Clear
4:53 PM 79.0 °F 26.1 °F 14% 29.90 in 10.0 mi SE 8.1 mph - N/A   Clear
5:53 PM 79.0 °F 26.1 °F 14% 29.88 in 10.0 mi SSW 4.6 mph 16.1 mph N/A   Clear
6:53 PM 79.0 °F 26.1 °F 14% 29.88 in 10.0 mi Calm Calm - N/A   Clear
7:53 PM 75.0 °F 21.9 °F 14% 29.86 in 10.0 mi SSW 3.5 mph - N/A   Clear
8:53 PM 66.9 °F 36.0 °F 32% 29.87 in 10.0 mi SSE 6.9 mph - N/A   Clear
9:53 PM 64.0 °F 39.9 °F 41% 29.88 in 10.0 mi South 11.5 mph - N/A   Clear
10:53 PM 62.1 °F 39.0 °F 43% 29.87 in 10.0 mi South 13.8 mph - N/A   Clear
11:53 PM 59.0 °F 39.0 °F 48% 29.86 in 10.0 mi South 15.0 mph 20.7 mph N/A   Clear